Dillon, MT

3:21 PM MST on December 08, 2016 (GMT -0700)
Dillon

Weather History for KDLN - April, 2014

Change the Weather History Date:

Monday, April 7, 2014

  Actual Average Record
Temperature  
Mean Temperature 45 °F 39 °F  
Max Temperature 61 °F 52 °F 70 °F (1977)
Min Temperature 29 °F 27 °F 5 °F (1982)
Degree Days  
Heating Degree Days 20    
Month to date heating degree days 181  
Since 1 July heating degree days 6885  
Cooling Degree Days 0    
Month to date cooling degree days 0  
Year to date cooling degree days 0  
Moisture  
Dew Point 26 °F    
Average Humidity 48    
Maximum Humidity 70    
Minimum Humidity 26    
Precipitation  
Precipitation 0.00 in 0.04 in 0.73 in (1969)
Month to date precipitation 0.01 0.22  
Year to date precipitation 0.58 1.30  
Snow  
Snow 0.00 in - - ()
Snow Depth 0.00 in    
Sea Level Pressure  
Sea Level Pressure 30.19 in    
Wind  
Wind Speed 10 mph (SW)    
Max Wind Speed 23 mph    
Max Gust Speed 30 mph    
Visibility 10 miles    
Events      
T = Trace of Precipitation, MM = Missing Value Source: NWS Daily Summary

Daily Weather History Graph

Daily Weather History Graph

Search for Another Location

Airport or City:

Trip Planner

Search our weather history database for the weather conditions in past years. The results will help you decide how hot, cold, wet, or windy it might be!

Date:

Astronomy

Apr. 07, 2014 Rise Set
Actual Time 6:59 AM MDT 8:05 PM MDT
Civil Twilight 6:29 AM MDT 8:36 PM MDT
Nautical Twilight 5:53 AM MDT 9:12 PM MDT
Astronomical Twilight 5:14 AM MDT 9:50 PM MDT
Moon 12:51 PM MDT (4/7) 2:53 AM MDT (4/7)
Length of Visible Light 14h 07m
Length of Day
13h 06m
First Quarter, 54% of the Moon is Illuminated
Apr 7
First Quarter
Apr 15
Full
Apr 22
Last Quarter
Apr 29
New
May 6
First Quarter

Hourly Weather History & Observations

Time (MDT) Temp. Windchill Dew Point Humidity Pressure Visibility Wind Dir Wind Speed Gust Speed Precip Events Conditions
12:53 AM 33.1 °F 26.1 °F 23.0 °F 66% 30.19 in 10.0 mi SE 8.1 mph - N/A   Partly Cloudy
1:53 AM 34.0 °F 28.0 °F 21.9 °F 61% 30.18 in 10.0 mi South 6.9 mph - N/A   Clear
2:53 AM 33.1 °F 23.4 °F 21.9 °F 64% 30.19 in 10.0 mi SW 13.8 mph - N/A   Partly Cloudy
3:53 AM 34.0 °F 26.0 °F 25.0 °F 70% 30.19 in 10.0 mi SSW 10.4 mph - N/A   Clear
4:53 AM 35.1 °F 25.5 °F 26.1 °F 70% 30.19 in 10.0 mi SW 15.0 mph - N/A   Partly Cloudy
5:53 AM 36.0 °F 26.0 °F 26.1 °F 67% 30.19 in 10.0 mi WSW 17.3 mph - N/A   Partly Cloudy
6:53 AM 39.0 °F 30.3 °F 27.0 °F 62% 30.20 in 10.0 mi SW 16.1 mph - N/A   Mostly Cloudy
7:53 AM 41.0 °F 32.8 °F 28.0 °F 60% 30.22 in 10.0 mi WSW 16.1 mph - N/A   Overcast
8:53 AM 44.1 °F 36.5 °F 28.0 °F 53% 30.23 in 10.0 mi WSW 17.3 mph - N/A   Scattered Clouds
10:53 AM 51.1 °F - 28.0 °F 41% 30.23 in 10.0 mi WSW 17.3 mph - N/A   Mostly Cloudy
11:53 AM 53.1 °F - 28.0 °F 38% 30.22 in 10.0 mi West 23.0 mph 29.9 mph N/A   Scattered Clouds
12:53 PM 55.9 °F - 27.0 °F 33% 30.20 in 10.0 mi WSW 15.0 mph - N/A   Mostly Cloudy
2:53 PM 57.0 °F - 26.1 °F 30% 30.18 in 10.0 mi North 8.1 mph - N/A   Mostly Cloudy
3:53 PM 60.1 °F - 26.1 °F 27% 30.17 in 10.0 mi NE 8.1 mph - N/A   Overcast
4:53 PM 57.9 °F - 25.0 °F 28% 30.16 in 10.0 mi SE 5.8 mph - N/A   Overcast
5:53 PM 59.0 °F - 25.0 °F 27% 30.15 in 10.0 mi NE 3.5 mph - N/A   Mostly Cloudy
6:53 PM 55.9 °F - 25.0 °F 30% 30.16 in 9.0 mi Calm Calm - N/A   Clear
7:53 PM 51.1 °F - 26.1 °F 38% 30.17 in 10.0 mi Calm Calm - N/A   Clear
8:53 PM 48.0 °F - 26.1 °F 42% 30.17 in 10.0 mi SE 6.9 mph - N/A   Clear
9:53 PM 43.0 °F 36.8 °F 26.1 °F 51% 30.17 in 10.0 mi WSW 11.5 mph - N/A   Clear
11:53 PM 43.0 °F 39.5 °F 26.1 °F 51% 30.18 in 10.0 mi SSW 5.8 mph - N/A   Clear